Showing default

SYNCOM 2 (A 26), 634

Orbit data source: Space-Track

SYNCOM 2 (A 26), 634 is a payload satellite owned by GSFC (US) in GEO that was launched on Fri, 26 Jul 1963 UTC via a THOR DELTA B launch vehicle from the Air Force Eastern Test Range (AFETR). Payload-class satellites include a variety of spacecraft equipped with specific instruments for various scientific and technological missions. These include communications satellites like Starlink; space stations such as the ISS; scientific satellites like the Hubble; Earth observation satellites from companies like Planet Labs, Umbra, and HawkEye 360; GPS; miniature CubeSats for education and research; and military/defense satellites.

Not visible in the next 10 days
Identifier
634, 1963-031A
Orbit
GEO
Country
Flag of USUS
Related business
Manufacturer
Hughes
Mission
Non-operational spacecraft
Bus & Motor
HS-301, JPL SR-12-1
Mass
66 kg wet, ~30 kg dry
Launch date (UTC)
1963-07-26 (63 years ago)
Launch vehicle
THOR DELTA B
Launch site
Air Force Eastern Test Range (AFETR)
Object type
Payload
Rocket body
Debris
Shape & HBR
Unknown
Radar Cross Section
Large (>1 m²)

Expand to show TLE details & history
Last TLE update: 2 days ago

TLE from 2 days ago
0 SYNCOM 2 (A 26)
1 00634U 63031A   26134.73127769 -.00000042  00000-0  00000-0 0  9991
2 00634  30.0556 300.9206 0006448 197.4518  65.8786  1.00257109230023
Epoch: 2026-05-14T17:33Z
TLE epoch observation values (Epoch: 2026-05-14T17:33:02.392Z)
Latitude
-29.86033°
Longitude
67.60263°
Altitude
35,788.298 km
Speed
3.075 km/s
True Right ascension
13h 33m 20s
True Declination
-29° 50' 07"
Sunlit
Object was in daylight at epoch
Visualization orbit readout
Latitude
Unknown
Longitude
Unknown
Altitude
Unknown
Speed
Unknown
Apparent Right ascension
Unknown
Apparent Declination
Unknown
Sunlit
N/A
Visualization observer readout
Local Sidereal Time
20:17:05
Azimuth
Unknown
Elevation
Unknown
Doppler factor
Unknown
Orbital elements
Apogee altitude
35,818.578 km
Perigee altitude
35,764.196 km
Semi-major axis
42,169.524 km
Eccentricity
0.00064
Inclination
30.0556°
RAAN
300.9206°
Arg. of periapsis
197.4518°
True anomaly
65.94606°
Mean anomaly
65.8786°
Eccentric anomaly
65.91233°
Mean motion
0.25064 °/min
Orbital period
1,436.34 mins
BSTAR
0
Loading maneuver chart data...
Computing Atmospheric mass density...
Loading historical data...
Loading historical data...
Loading historical data...
Loading historical data...
Loading historical data...
Loading historical data...
Loading historical data...
Other satellites on launch #31 in the year 1963 (1963-07-26 UTC)

Documentation

Showing up to 5 results
|